User: anonymous   Login
Location: Caltech
(34.1382°N, 118.1253°W)
Time: 15:29:54
(UTC-07:00)
Language:

Cosmos 2219 Rocket - Orbit

View from above orbital plane
View from above orbital plane
View from above satellite
View from above satellite

Ground track
Ground track

The orbit data is extracted from the following two-line orbital elements,

1 22220U 92076B   16269.14088135 -.00000133  00000-0 -42918-4 0  9993
2 22220  70.9986 257.1507 0014716 310.0506 118.7436 14.16404836233241
Epoch (UTC): 25 September 2016 03:22:52
Eccentricity: 0.0014716
inclination: 70.9986°
perigee height: 827 km
apogee height: 848 km
right ascension of ascending node: 257.1507°
argument of perigee: 310.0506°
revolutions per day: 14.16404836
mean anomaly at epoch: 118.7436°
orbit number at epoch: 23324

The dashed part of the orbit path shows where the satellite is in the earth's shadow,  

DLR